Kezdőlap
METAR-TAF:

METAR-TAF

Repülőterek :

Dodge Center Airport (Dodge Center Municipal)

Dodge Center, Minnesota, Amerikai Egyesült Államok

földrajzi szélesség: 44-01-05N, földrajzi hosszúság: 092-49-53W, magasság: 398 m

Jelenlegi meteorológiai megfigyelések

A jelentés 20 perccel ezelõtt készült, 10:15 UTC
Szélcsend
Hőmérséklet -2°C
Páratartalom 93%
Légköri nyomás 1018 hPa
Látótávolság: 4.8 km
Párásság

METAR: KTOB 231015Z AUTO 00000KT 3SM BR M02/M03 A3005 RMK AO2

Idő: 05:35 (10:35 UTC)


TAF: hiányzik

Meteorológiai megfigyelések és előrejelzések több, mint 4000 repülőtéren (METAR és TAF jelentéseket).

A térképen piros és sárga pontok jelzik az elérhető meteorológiai állomásokat.

Mozgassa az egeret a pont fölött, hogy megjelenjen az állomás neve.

Azután kattintson az időjárási megfigyelések és előrejelzések megtekintéséhez.

A térkép megváltoztatása: kattintson a fekete keresztel jelölt zöld gombra ráközelítéshez, a vonallal jelölt zöld gombra távolításhoz, vagy a zöld nyilakra a szomszédos térképek eléréséhez.


METAR-TAF: